Location: Olda
(45.8833°N, 9.5500°E)
Time: 07:53:10
(UTC+00:00)

Cosmos 1515 - Pass Details

Date: 03 March 2021
Orbit: 504 x 516 km, 82.5° (Epoch: 10 April)

Event Time Altitude Azimuth Distance (km) Brightness Sun altitude
Rises 17:54:56 0° 353° (N) 2,645 7.4 -8.4°
Reaches altitude 10° 17:57:06 10° 356° (N) 1,752 6.4 -8.8°
Maximum altitude 18:00:55 68° 80° (E) 559 3.6 -9.4°
Drops below altitude 10° 18:04:42 10° 164° (SSE) 1,730 6.2 -10.1°
Sets 18:06:49 0° 167° (SSE) 2,609 7.1 -10.5°
